Tracking 20083 objects as of 12-Dec-2019
HD Live streaming from Space Station
objects crossing your sky now

DELTA 1 DEB

Track DELTA 1 DEB now!
10-day predictions


NORAD ID: 37639
Int'l Code: 1978-026JA
Perigee: 874.5 km
Apogee: 1,046.2 km
Inclination: 98.8 °
Period: 104.1 minutes
Semi major axis: 7331 km
RCS: 0.0118 m2 (small)
Launch date: March 5, 1978
Source: United States (US)
Launch site: AIR FORCE WESTERN TEST RANGE (AFWTR)

Note: This is SATELLITE DEBRIS
aabbcc
Your satellite tracking list
Your tracking list is empty




NASA's NSSDC Master Catalog

Two Line Element Set (TLE):
1 37639U 78026JA  19344.30022053  .00000046  00000-0  74546-4 0  9997
2 37639  98.7502   2.3299 0117116 353.5133  62.6595 13.83014908943147
Source of the keplerian elements: AFSPC